Location: Arezzo
(43.4170°N, 11.8830°E)
Time: 02:34:33
(UTC+01:00)

STARLINK-2711 - Pass Details

Date: 25 October 2021
Orbit: 545 x 549 km, 53.1° (Epoch: 30 November)

Event Time Altitude Azimuth Distance (km) Brightness Sun altitude
Exits shadow 06:25:00 - 213° (SSW) 2,346 6.5 -14.0°
Reaches altitude 10° 06:26:24 10° 208° (SSW) 1,807 6.0 -13.8°
Maximum altitude 06:30:17 43° 137° (SE) 771 4.7 -13.1°
Drops below altitude 10° 06:34:13 10° 65° (ENE) 1,820 7.3 -12.4°
Sets 06:36:32 0° 59° (ENE) 2,717 8.1 -11.9°
